TimeEST,TemperatureF,Dew PointF,Humidity,Sea Level PressureIn,VisibilityMPH,Wind Direction,Wind SpeedMPH,Gust SpeedMPH,PrecipitationIn,Events,Conditions,WindDirDegrees,DateUTC
12:15 AM,33.8,30.2,87,30.29,10.0,Calm,Calm,-,N/A,,Clear,0,2012-12-15 05:15:00
12:35 AM,35.6,30.2,81,30.29,10.0,Calm,Calm,-,N/A,,Clear,0,2012-12-15 05:35:00
12:55 AM,33.8,30.2,87,30.28,10.0,Calm,Calm,-,N/A,,Clear,0,2012-12-15 05:55:00
1:35 AM,33.8,30.2,87,30.27,10.0,Calm,Calm,-,N/A,,Clear,0,2012-12-15 06:35:00
1:55 AM,33.8,30.2,87,30.27,10.0,Calm,Calm,-,N/A,,Clear,0,2012-12-15 06:55:00
2:15 AM,33.8,30.2,87,30.27,10.0,Calm,Calm,-,N/A,,Clear,0,2012-12-15 07:15:00
2:35 AM,33.8,30.2,87,30.26,10.0,Calm,Calm,-,N/A,,Clear,0,2012-12-15 07:35:00
2:55 AM,33.8,30.2,87,30.25,10.0,Calm,Calm,-,N/A,,Clear,0,2012-12-15 07:55:00
3:15 AM,32.0,32.0,100,30.27,10.0,WSW,3.5,-,N/A,,Clear,240,2012-12-15 08:15:00
3:35 AM,32.0,30.2,93,30.27,10.0,Calm,Calm,-,N/A,,Clear,0,2012-12-15 08:35:00
3:55 AM,33.8,30.2,87,30.26,10.0,Calm,Calm,-,N/A,,Clear,0,2012-12-15 08:55:00
4:15 AM,33.8,30.2,87,30.24,10.0,Calm,Calm,-,N/A,,Clear,0,2012-12-15 09:15:00
4:35 AM,33.8,30.2,87,30.24,10.0,Calm,Calm,-,N/A,,Clear,0,2012-12-15 09:35:00
4:55 AM,32.0,32.0,100,30.25,10.0,Calm,Calm,-,N/A,,Clear,0,2012-12-15 09:55:00
5:15 AM,32.0,30.2,93,30.26,10.0,Calm,Calm,-,N/A,,Clear,0,2012-12-15 10:15:00
5:35 AM,33.8,30.2,87,30.25,10.0,Calm,Calm,-,N/A,,Clear,0,2012-12-15 10:35:00
5:55 AM,32.0,32.0,100,30.26,10.0,Calm,Calm,-,N/A,,Clear,0,2012-12-15 10:55:00
6:15 AM,32.0,32.0,100,30.27,10.0,Calm,Calm,-,N/A,,Clear,0,2012-12-15 11:15:00
6:35 AM,33.8,32.0,93,30.26,10.0,Calm,Calm,-,N/A,,Clear,0,2012-12-15 11:35:00
6:55 AM,33.8,32.0,93,30.27,10.0,Calm,Calm,-,N/A,,Clear,0,2012-12-15 11:55:00
7:15 AM,33.8,32.0,93,30.27,10.0,Calm,Calm,-,N/A,,Clear,0,2012-12-15 12:15:00
7:35 AM,33.8,32.0,93,30.26,10.0,Calm,Calm,-,N/A,,Clear,0,2012-12-15 12:35:00
7:55 AM,33.8,32.0,93,30.27,10.0,Calm,Calm,-,N/A,,Clear,0,2012-12-15 12:55:00
8:15 AM,33.8,32.0,93,30.27,10.0,Calm,Calm,-,N/A,,Clear,0,2012-12-15 13:15:00
8:35 AM,33.8,32.0,93,30.26,10.0,Calm,Calm,-,N/A,,Clear,0,2012-12-15 13:35:00
8:55 AM,35.6,32.0,87,30.27,10.0,Calm,Calm,-,N/A,,Clear,0,2012-12-15 13:55:00
9:15 AM,35.6,32.0,87,30.29,10.0,Calm,Calm,-,N/A,,Clear,0,2012-12-15 14:15:00
9:35 AM,37.4,32.0,81,30.28,10.0,Calm,Calm,-,N/A,,Clear,0,2012-12-15 14:35:00
9:55 AM,41.0,32.0,70,30.28,10.0,Calm,Calm,-,N/A,,Clear,0,2012-12-15 14:55:00
10:15 AM,42.8,33.8,70,30.28,10.0,Calm,Calm,-,N/A,,Clear,0,2012-12-15 15:15:00
10:35 AM,44.6,32.0,61,30.28,10.0,Calm,Calm,-,N/A,,Clear,0,2012-12-15 15:35:00
10:55 AM,50.0,32.0,50,30.28,10.0,Calm,Calm,-,N/A,,Clear,0,2012-12-15 15:55:00
11:15 AM,50.0,32.0,50,30.26,10.0,Calm,Calm,-,N/A,,Clear,0,2012-12-15 16:15:00
11:35 AM,51.8,30.2,44,30.25,10.0,South,3.5,-,N/A,,Clear,190,2012-12-15 16:35:00
11:55 AM,51.8,30.2,44,30.24,10.0,Calm,Calm,-,N/A,,Clear,0,2012-12-15 16:55:00
12:15 PM,51.8,30.2,44,30.23,10.0,Calm,Calm,-,N/A,,Clear,0,2012-12-15 17:15:00
12:35 PM,53.6,30.2,41,30.22,10.0,Calm,Calm,-,N/A,,Clear,0,2012-12-15 17:35:00
12:55 PM,55.4,30.2,38,30.20,10.0,South,4.6,-,N/A,,Clear,180,2012-12-15 17:55:00
1:15 PM,55.4,30.2,38,30.19,10.0,SSE,5.8,-,N/A,,Clear,160,2012-12-15 18:15:00
1:35 PM,55.4,32.0,41,30.19,10.0,Calm,Calm,-,N/A,,Clear,0,2012-12-15 18:35:00
1:55 PM,55.4,32.0,41,30.17,10.0,South,3.5,-,N/A,,Clear,190,2012-12-15 18:55:00
2:15 PM,55.4,30.2,38,30.16,10.0,SE,5.8,-,N/A,,Clear,130,2012-12-15 19:15:00
2:35 PM,55.4,32.0,41,30.16,10.0,South,4.6,-,N/A,,Clear,190,2012-12-15 19:35:00
2:55 PM,57.2,32.0,38,30.15,10.0,SW,4.6,-,N/A,,Clear,220,2012-12-15 19:55:00
3:15 PM,55.4,32.0,41,30.14,10.0,SE,4.6,-,N/A,,Clear,140,2012-12-15 20:15:00
3:35 PM,55.4,32.0,41,30.15,10.0,South,6.9,-,N/A,,Scattered Clouds,180,2012-12-15 20:35:00
3:55 PM,55.4,30.2,38,30.16,10.0,SSE,8.1,-,N/A,,Clear,150,2012-12-15 20:55:00
4:15 PM,53.6,32.0,44,30.15,10.0,South,8.1,-,N/A,,Clear,170,2012-12-15 21:15:00
4:35 PM,51.8,32.0,47,30.16,10.0,South,5.8,-,N/A,,Scattered Clouds,170,2012-12-15 21:35:00
4:55 PM,51.8,32.0,47,30.16,10.0,South,5.8,-,N/A,,Mostly Cloudy,170,2012-12-15 21:55:00
5:15 PM,51.8,32.0,47,30.16,10.0,South,5.8,-,N/A,,Scattered Clouds,170,2012-12-15 22:15:00
5:35 PM,51.8,32.0,47,30.16,10.0,Calm,Calm,-,N/A,,Mostly Cloudy,0,2012-12-15 22:35:00
5:55 PM,50.0,32.0,50,30.16,10.0,SSW,3.5,-,N/A,,Overcast,200,2012-12-15 22:55:00
6:15 PM,50.0,32.0,50,30.16,10.0,Calm,Calm,-,N/A,,Mostly Cloudy,0,2012-12-15 23:15:00
7:15 PM,46.4,32.0,57,30.16,10.0,Calm,Calm,-,N/A,,Overcast,0,2012-12-16 00:15:00
7:35 PM,46.4,32.0,57,30.16,10.0,Calm,Calm,-,N/A,,Overcast,0,2012-12-16 00:35:00
7:55 PM,46.4,32.0,57,30.15,10.0,Calm,Calm,-,N/A,Rain,Light Rain,0,2012-12-16 00:55:00
8:15 PM,46.4,32.0,57,30.15,10.0,Calm,Calm,-,N/A,,Mostly Cloudy,0,2012-12-16 01:15:00
8:35 PM,46.4,32.0,57,30.15,10.0,Calm,Calm,-,N/A,,Overcast,0,2012-12-16 01:35:00
8:55 PM,46.4,32.0,57,30.15,10.0,Calm,Calm,-,N/A,,Overcast,0,2012-12-16 01:55:00
9:35 PM,46.4,35.6,66,30.14,10.0,Calm,Calm,-,N/A,Rain,Light Rain,0,2012-12-16 02:35:00
9:55 PM,46.4,33.8,62,30.14,10.0,Calm,Calm,-,N/A,,Overcast,0,2012-12-16 02:55:00
10:15 PM,44.6,37.4,76,30.13,10.0,Calm,Calm,-,N/A,Rain,Light Rain,0,2012-12-16 03:15:00
10:35 PM,44.6,33.8,66,30.13,10.0,Calm,Calm,-,N/A,,Overcast,0,2012-12-16 03:35:00
10:55 PM,44.6,37.4,76,30.13,10.0,Calm,Calm,-,N/A,,Overcast,0,2012-12-16 03:55:00
11:15 PM,44.6,35.6,71,30.12,10.0,Calm,Calm,-,N/A,,Overcast,0,2012-12-16 04:15:00
11:35 PM,44.6,35.6,71,30.12,10.0,Calm,Calm,-,N/A,,Overcast,0,2012-12-16 04:35:00
11:55 PM,42.8,37.4,81,30.11,10.0,Calm,Calm,-,N/A,,Overcast,0,2012-12-16 04:55:00